Clear Lake, IA

5:41 PM CDT on August 29, 2016 (GMT -0500)
Mason City Municipal

Weather History for KMCW - November, 2012

Change the Weather History Date:

Monday, November 5, 2012

  Actual Average Record
Temperature  
Mean Temperature 40 °F 40 °F  
Max Temperature 43 °F 50 °F 74 °F (1918)
Min Temperature 37 °F 30 °F 0 °F (1951)
Degree Days  
Heating Degree Days 25 25  
Month to date heating degree days 129 121  
Since 1 July heating degree days 895 859  
Cooling Degree Days 0 0  
Month to date cooling degree days 0 0  
Year to date cooling degree days 899 616  
Moisture  
Dew Point 36 °F    
Average Humidity 81    
Maximum Humidity 92    
Minimum Humidity 70    
Precipitation  
Precipitation 0.06 in 0.07 in 1.24 in (1979)
Month to date precipitation 0.12 0.35  
Year to date precipitation 18.60 32.43  
Snow  
Snow 0.00 in 0.10 in 4.00 in (1941)
Month to date snowfall 0.0 0.3  
Since 1 July snowfall 0.0 0.7  
Since 1 September snowfall 0.0 0.7  
Snow Depth 0.00 in    
Sea Level Pressure  
Sea Level Pressure 30.14 in    
Wind  
Wind Speed 7 mph (SE)    
Max Wind Speed 13 mph    
Max Gust Speed 16 mph    
Visibility 4 miles    
Events Rain    
T = Trace of Precipitation, MM = Missing Value Source: NWS Daily Summary

Daily Weather History Graph

Daily Weather History Graph

Search for Another Location

Airport or City:

Trip Planner

Search our weather history database for the weather conditions in past years. The results will help you decide how hot, cold, wet, or windy it might be!

Date:

Astronomy

Nov. 05, 2012 Rise Set
Actual Time 6:53 AM CST 4:59 PM CST
Civil Twilight 6:23 AM CST 5:29 PM CST
Nautical Twilight 5:50 AM CST 6:03 PM CST
Astronomical Twilight 5:16 AM CST 6:36 PM CST
Moon 10:37 PM CST (11/5) 12:13 PM CST (11/5)
Length of Visible Light 11h 05m
Length of Day
10h 05m
Waning Gibbous, 62% of the Moon is Illuminated
Nov 5
Waning Gibbous
Nov 6
Last Quarter
Nov 13
New
Nov 20
First Quarter
Nov 28
Full

Hourly Weather History & Observations

Time (CST) Temp. Windchill Dew Point Humidity Pressure Visibility Wind Dir Wind Speed Gust Speed Precip Events Conditions
12:53 AM 39.9 °F 34.5 °F 37.0 °F 89% 30.13 in 4.0 mi SE 8.1 mph - 0.02 in Rain Light Rain
1:51 AM 39.2 °F 34.2 °F 37.4 °F 93% 30.13 in 4.0 mi SE 6.9 mph - 0.01 in   Overcast
1:53 AM 39.9 °F 35.1 °F 37.0 °F 89% 30.14 in 4.0 mi ESE 6.9 mph - 0.01 in   Overcast
2:08 AM 39.2 °F 34.2 °F 37.4 °F 93% 30.13 in 4.0 mi ESE 6.9 mph - 0.00 in Rain Light Rain
2:53 AM 39.9 °F 34.5 °F 37.0 °F 89% 30.14 in 3.0 mi ESE 8.1 mph - 0.02 in Rain Light Rain
3:20 AM 39.2 °F 33.6 °F 37.4 °F 93% 30.13 in 3.0 mi ESE 8.1 mph - 0.00 in Rain Light Rain
3:32 AM 39.2 °F 32.5 °F 37.4 °F 93% 30.13 in 3.0 mi ESE 10.4 mph - 0.00 in Rain Light Rain
3:53 AM 39.0 °F 32.8 °F 37.0 °F 93% 30.14 in 3.0 mi ESE 9.2 mph - 0.00 in Rain Light Rain
4:53 AM 39.0 °F 33.4 °F 37.0 °F 93% 30.15 in 3.0 mi ESE 8.1 mph - 0.01 in Rain Light Rain
5:26 AM 39.2 °F 34.2 °F 37.4 °F 93% 30.13 in 3.0 mi ESE 6.9 mph - 0.00 in   Overcast
5:53 AM 39.2 °F 34.2 °F 37.4 °F 93% 30.14 in 3.0 mi ESE 6.9 mph - N/A   Overcast
6:02 AM 39.2 °F 33.6 °F 37.4 °F 93% 30.14 in 3.0 mi ESE 8.1 mph - N/A   Overcast
6:53 AM 39.0 °F 34.0 °F 37.0 °F 93% 30.16 in 3.0 mi ESE 6.9 mph - N/A   Overcast
7:22 AM 39.2 °F 34.2 °F 37.4 °F 93% 30.16 in 2.5 mi ESE 6.9 mph - N/A   Overcast
7:53 AM 39.9 °F 35.1 °F 37.0 °F 89% 30.18 in 2.5 mi ESE 6.9 mph - N/A   Overcast
8:02 AM 39.2 °F 33.6 °F 37.4 °F 93% 30.17 in 2.5 mi ESE 8.1 mph - N/A   Overcast
8:40 AM 39.2 °F 35.0 °F 37.4 °F 93% 30.17 in 2.5 mi ESE 5.8 mph - N/A   Overcast
8:51 AM 41.0 °F 36.4 °F 37.4 °F 87% 30.18 in 3.0 mi SE 6.9 mph - N/A   Overcast
8:53 AM 41.0 °F 35.8 °F 37.0 °F 86% 30.19 in 3.0 mi ESE 8.1 mph - N/A   Overcast
9:53 AM 41.0 °F 35.8 °F 36.0 °F 82% 30.20 in 3.0 mi SE 8.1 mph - N/A   Haze
10:06 AM 42.8 °F 38.6 °F 35.6 °F 76% 30.19 in 3.0 mi SE 6.9 mph - N/A   Haze
10:53 AM 43.0 °F 38.2 °F 36.0 °F 76% 30.20 in 4.0 mi SSE 8.1 mph - N/A   Haze
11:53 AM 43.0 °F 39.5 °F 35.1 °F 74% 30.19 in 4.0 mi SSE 5.8 mph - N/A   Haze
12:53 PM 43.0 °F 38.8 °F 35.1 °F 74% 30.17 in 4.0 mi SSE 6.9 mph - N/A   Haze
1:53 PM 43.0 °F 38.8 °F 34.0 °F 71% 30.15 in 5.0 mi SE 6.9 mph - N/A   Haze
2:53 PM 43.0 °F 39.5 °F 33.1 °F 68% 30.15 in 7.0 mi SE 5.8 mph - N/A   Overcast
3:53 PM 42.1 °F 39.2 °F 35.1 °F 76% 30.15 in 5.0 mi SSE 4.6 mph - N/A   Haze
4:53 PM 41.0 °F 39.0 °F 35.1 °F 79% 30.15 in 5.0 mi South 3.5 mph - N/A   Haze
5:00 PM 41.0 °F 39.0 °F 35.6 °F 81% 30.14 in 5.0 mi South 3.5 mph - N/A   Haze
5:40 PM 41.0 °F - 35.6 °F 81% 30.14 in 6.0 mi Calm Calm - N/A   Haze
5:53 PM 41.0 °F 37.1 °F 35.1 °F 79% 30.14 in 6.0 mi SSE 5.8 mph - N/A   Haze
6:53 PM 39.9 °F 35.8 °F 35.1 °F 83% 30.13 in 6.0 mi South 5.8 mph - N/A   Haze
7:14 PM 39.2 °F 34.2 °F 35.6 °F 87% 30.10 in 6.0 mi SSE 6.9 mph - N/A   Haze
7:53 PM 37.0 °F 31.6 °F 33.1 °F 86% 30.11 in 5.0 mi South 6.9 mph - N/A   Mostly Cloudy
8:03 PM 37.4 °F 33.8 °F 33.8 °F 87% 30.10 in 4.0 mi South 4.6 mph - N/A   Overcast
8:53 PM 39.9 °F 35.8 °F 35.1 °F 83% 30.11 in 4.0 mi South 5.8 mph - N/A   Haze
9:53 PM 41.0 °F 35.2 °F 34.0 °F 76% 30.10 in 5.0 mi SSW 9.2 mph - N/A   Haze
10:53 PM 39.9 °F 33.4 °F 34.0 °F 79% 30.06 in 5.0 mi South 10.4 mph - N/A   Haze
11:53 PM 39.9 °F 33.4 °F 34.0 °F 79% 30.02 in 5.0 mi South 10.4 mph - N/A   Haze